When you browse on this site, cookies collect data to enhance your experience and personalize the content and advertising you see.
Visit our Privacy Policy to learn more. By continuing to use the site, you agree to this use of cookies and data.
  • In Lithuania
  • List of Countries
  • For 7 days
  • Water Temperature
  • Weather Map
  • Weather Widgets
  • user-avatar
    Login

    Hourly Weather Sniardewno

    Today, 24 August, Saturday

    Time Temperature Precipitation Wind Pressure Humidity
    00:00 +16°C° 0 mm 2 mps 760 mmHg 69%
    01:00 +15°C° 0 mm 2 mps 760 mmHg 70%
    02:00 +15°C° 0 mm 2 mps 760 mmHg 73%
    03:00 +15°C° 0 mm 2 mps 759 mmHg 76%
    04:00 +14°C° 0 mm 1 mps 759 mmHg 79%
    05:00 +16°C° 0 mm 1 mps 759 mmHg 76%
    06:00 +18°C° 0 mm 1 mps 759 mmHg 73%
    07:00 +20°C° 0 mm 1 mps 760 mmHg 68%
    08:00 +22°C° 0 mm 1 mps 760 mmHg 62%
    09:00 +24°C° 0 mm 1 mps 760 mmHg 56%
    10:00 +26°C° 0 mm 1 mps 760 mmHg 51%
    11:00 +26°C° 0 mm 1 mps 760 mmHg 48%
    12:00 +27°C° 0 mm 1 mps 760 mmHg 45%
    13:00 +28°C° 0 mm 1 mps 759 mmHg 43%
    14:00 +28°C° 0 mm 1 mps 759 mmHg 44%
    15:00 +27°C° 0 mm 1 mps 759 mmHg 45%
    16:00 +27°C° 0 mm 1 mps 759 mmHg 46%
    17:00 +25°C° 0 mm 1 mps 759 mmHg 54%
    18:00 +23°C° 0 mm 1 mps 759 mmHg 62%
    19:00 +20°C° 0 mm 2 mps 759 mmHg 70%
    20:00 +20°C° 0 mm 1 mps 759 mmHg 73%
    21:00 +19°C° 0 mm 1 mps 759 mmHg 76%
    22:00 +18°C° 0 mm 1 mps 759 mmHg 79%
    23:00 +18°C° 0 mm 1 mps 759 mmHg 81%

    Tomorrow, 25 August, Sunday

    Time Temperature Precipitation Wind Pressure Humidity
    00:00 +18°C° 0 mm 1 mps 759 mmHg 83%
    01:00 +16°C° 0 mm 1 mps 759 mmHg 84%
    02:00 +16°C° 0 mm 1 mps 759 mmHg 85%
    03:00 +16°C° 0 mm 1 mps 759 mmHg 86%
    04:00 +15°C° 0 mm 1 mps 759 mmHg 87%
    05:00 +18°C° 0 mm 1 mps 759 mmHg 82%
    06:00 +18°C° 0 mm 2 mps 759 mmHg 78%
    07:00 +19°C° 0 mm 2 mps 759 mmHg 73%
    08:00 +21°C° 0 mm 2 mps 759 mmHg 67%
    09:00 +24°C° 0 mm 2 mps 759 mmHg 60%
    10:00 +25°C° 0 mm 2 mps 759 mmHg 54%
    11:00 +26°C° 0 mm 2 mps 759 mmHg 52%
    12:00 +27°C° 0 mm 2 mps 759 mmHg 50%
    13:00 +27°C° 0 mm 3 mps 759 mmHg 47%
    14:00 +27°C° 0 mm 3 mps 759 mmHg 49%
    15:00 +27°C° 0 mm 3 mps 758 mmHg 50%
    16:00 +27°C° 0 mm 3 mps 758 mmHg 52%
    17:00 +25°C° 0 mm 3 mps 758 mmHg 59%
    18:00 +23°C° 0 mm 2 mps 758 mmHg 66%
    19:00 +20°C° 0 mm 2 mps 758 mmHg 72%
    20:00 +20°C° 0 mm 2 mps 758 mmHg 75%
    21:00 +19°C° 0 mm 2 mps 758 mmHg 78%
    22:00 +18°C° 0 mm 2 mps 759 mmHg 81%
    23:00 +18°C° 0 mm 2 mps 759 mmHg 83%

    Day after tomorrow, 26 August, Monday

    Time Temperature Precipitation Wind Pressure Humidity
    00:00 +17°C° 0 mm 2 mps 759 mmHg 85%
    01:00 +16°C° 0 mm 2 mps 759 mmHg 87%
    02:00 +16°C° 0 mm 2 mps 758 mmHg 88%
    03:00 +16°C° 0 mm 2 mps 758 mmHg 89%
    04:00 +15°C° 0 mm 2 mps 758 mmHg 91%
    05:00 +17°C° 0 mm 2 mps 758 mmHg 86%
    06:00 +18°C° 0 mm 2 mps 758 mmHg 81%
    07:00 +19°C° 0 mm 3 mps 758 mmHg 77%
    08:00 +21°C° 0 mm 3 mps 758 mmHg 69%
    09:00 +24°C° 0 mm 3 mps 758 mmHg 62%
    10:00 +26°C° 0 mm 4 mps 758 mmHg 54%
    11:00 +26°C° 0 mm 4 mps 758 mmHg 52%
    12:00 +27°C° 0 mm 4 mps 757 mmHg 49%
    13:00 +28°C° 0 mm 4 mps 757 mmHg 47%
    14:00 +28°C° 0 mm 4 mps 757 mmHg 48%
    15:00 +28°C° 0 mm 3 mps 756 mmHg 49%
    16:00 +28°C° 0 mm 3 mps 756 mmHg 50%
    17:00 +26°C° 0 mm 3 mps 756 mmHg 57%
    18:00 +24°C° 0 mm 2 mps 756 mmHg 64%
    19:00 +21°C° 0 mm 2 mps 756 mmHg 70%
    20:00 +20°C° 0 mm 2 mps 756 mmHg 73%
    21:00 +19°C° 0 mm 2 mps 756 mmHg 76%
    22:00 +19°C° 0 mm 2 mps 756 mmHg 79%
    23:00 +18°C° 0 mm 2 mps 756 mmHg 82%

    27 August, Tuesday

    Time Temperature Precipitation Wind Pressure Humidity
    00:00 +18°C° 0 mm 3 mps 756 mmHg 85%
    01:00 +18°C° 0 mm 3 mps 756 mmHg 88%
    02:00 +17°C° 0 mm 3 mps 756 mmHg 90%
    03:00 +17°C° 0 mm 3 mps 756 mmHg 92%
    04:00 +17°C° 0 mm 3 mps 756 mmHg 95%
    05:00 +18°C° 0 mm 3 mps 756 mmHg 89%
    06:00 +19°C° 0 mm 3 mps 756 mmHg 83%
    07:00 +20°C° 0 mm 3 mps 756 mmHg 78%
    08:00 +22°C° 0 mm 3 mps 756 mmHg 71%
    09:00 +25°C° 0 mm 4 mps 757 mmHg 64%
    10:00 +27°C° 0 mm 4 mps 757 mmHg 57%
    11:00 +28°C° 0 mm 4 mps 757 mmHg 55%
    12:00 +29°C° 0 mm 3 mps 756 mmHg 52%
    13:00 +29°C° 0 mm 3 mps 756 mmHg 50%
    14:00 +29°C° 0 mm 3 mps 756 mmHg 50%
    15:00 +29°C° 0 mm 3 mps 756 mmHg 51%
    16:00 +29°C° 0 mm 3 mps 756 mmHg 52%
    17:00 +27°C° 0 mm 3 mps 756 mmHg 58%
    18:00 +25°C° 0 mm 3 mps 756 mmHg 64%
    19:00 +22°C° 0 mm 3 mps 756 mmHg 70%
    20:00 +21°C° 0 mm 3 mps 756 mmHg 73%
    21:00 +20°C° 0 mm 3 mps 756 mmHg 77%
    22:00 +19°C° 0 mm 3 mps 756 mmHg 80%
    23:00 +19°C° 0 mm 3 mps 756 mmHg 82%

    28 August, Wednesday

    Time Temperature Precipitation Wind Pressure Humidity
    00:00 +18°C° 0 mm 3 mps 756 mmHg 84%
    01:00 +18°C° 0 mm 3 mps 756 mmHg 86%
    02:00 +18°C° 0 mm 3 mps 756 mmHg 87%
    03:00 +17°C° 0 mm 3 mps 756 mmHg 89%
    04:00 +17°C° 0 mm 3 mps 756 mmHg 91%
    05:00 +18°C° 0 mm 3 mps 756 mmHg 86%
    06:00 +19°C° 0 mm 3 mps 756 mmHg 81%
    07:00 +21°C° 0 mm 3 mps 756 mmHg 76%
    08:00 +22°C° 0 mm 4 mps 756 mmHg 70%
    09:00 +25°C° 0 mm 4 mps 756 mmHg 63%
    10:00 +27°C° 0 mm 4 mps 756 mmHg 56%
    11:00 +27°C° 0 mm 4 mps 756 mmHg 54%
    12:00 +28°C° 0 mm 5 mps 755 mmHg 52%
    13:00 +29°C° 0 mm 5 mps 755 mmHg 49%
    14:00 +28°C° 0 mm 4 mps 755 mmHg 51%
    15:00 +28°C° 0 mm 4 mps 755 mmHg 52%
    16:00 +28°C° 0 mm 4 mps 754 mmHg 54%
    17:00 +26°C° 0 mm 4 mps 754 mmHg 61%
    18:00 +23°C° 0 mm 4 mps 754 mmHg 68%
    19:00 +22°C° 0 mm 4 mps 754 mmHg 75%
    20:00 +21°C° 0 mm 4 mps 754 mmHg 76%
    21:00 +21°C° 0 mm 5 mps 754 mmHg 77%
    22:00 +20°C° 0 mm 5 mps 755 mmHg 79%
    23:00 +19°C° 0 mm 5 mps 755 mmHg 80%

    29 August, Thursday

    Time Temperature Precipitation Wind Pressure Humidity
    00:00 +19°C° 0 mm 4 mps 755 mmHg 81%
    01:00 +18°C° 0 mm 4 mps 754 mmHg 82%
    02:00 +17°C° 0 mm 4 mps 754 mmHg 80%
    03:00 +17°C° 0 mm 4 mps 754 mmHg 79%
    04:00 +15°C° 0 mm 5 mps 754 mmHg 77%
    05:00 +16°C° 0 mm 5 mps 754 mmHg 76%
    06:00 +16°C° 0 mm 5 mps 754 mmHg 74%
    07:00 +17°C° 0 mm 5 mps 754 mmHg 73%
    08:00 +19°C° 0 mm 5 mps 754 mmHg 68%
    09:00 +21°C° 0 mm 5 mps 754 mmHg 64%
    10:00 +23°C° 0 mm 6 mps 754 mmHg 60%
    11:00 +24°C° 0 mm 6 mps 754 mmHg 57%
    12:00 +26°C° 0 mm 6 mps 754 mmHg 55%
    13:00 +27°C° 0 mm 6 mps 754 mmHg 52%
    14:00 +26°C° 0 mm 6 mps 754 mmHg 53%
    15:00 +26°C° 0 mm 6 mps 754 mmHg 54%
    16:00 +24°C° 0 mm 6 mps 753 mmHg 56%
    17:00 +23°C° 0 mm 5 mps 753 mmHg 60%
    18:00 +21°C° 0 mm 5 mps 753 mmHg 64%
    19:00 +20°C° 0 mm 5 mps 753 mmHg 68%
    20:00 +19°C° 0 mm 5 mps 754 mmHg 68%
    21:00 +17°C° 0 mm 5 mps 754 mmHg 68%
    22:00 +16°C° 0 mm 5 mps 754 mmHg 68%
    23:00 +16°C° 0 mm 5 mps 754 mmHg 67%
    Show more